1993-01-01 03:00:00,-1.86,-1.96
1993-01-01 06:00:00,-1.68,-1.75
1993-01-01 09:00:00,-2.21,-2.23
1993-01-01 12:00:00,-4.28,-4.24
1993-01-01 15:00:00,-4.89,-4.84
1993-01-01 18:00:00,-4.94,-4.96
1993-01-01 21:00:00,-3.78,-3.84
1993-01-02 00:00:00,-2.46,-2.54
1993-01-02 03:00:00,-1.24,-1.33
1993-01-02 06:00:00,-1.00,-1.18
1993-01-02 09:00:00,-0.53,-0.76
1993-01-02 12:00:00,-1.29,-1.44
1993-01-02 15:00:00,-2.72,-2.76
1993-01-02 18:00:00,-5.14,-5.08
1993-01-02 21:00:00,-6.94,-6.87
1993-01-03 00:00:00,-7.08,-6.98
1993-01-03 03:00:00,-6.12,-6.04
1993-01-03 06:00:00,-6.60,-6.56
1993-01-03 09:00:00,-6.39,-6.36
1993-01-03 12:00:00,-6.22,-6.18
1993-01-03 15:00:00,-6.70,-6.70
1993-01-03 18:00:00,-6.92,-6.91
1993-01-03 21:00:00,-1.85,-2.00
1993-01-04 00:00:00,-1.77,-1.86
1993-01-04 03:00:00,-1.38,-1.53
1993-01-04 06:00:00,0.64,0.38
1993-01-04 09:00:00,1.62,1.44
1993-01-04 12:00:00,1.30,1.12
1993-01-04 15:00:00,-0.68,-0.86
1993-01-04 18:00:00,-3.26,-3.32
1993-01-04 21:00:00,-5.99,-5.98
1993-01-05 00:00:00,-4.87,-4.87
1993-01-05 03:00:00,-4.18,-4.21
1993-01-05 06:00:00,-3.54,-3.58
1993-01-05 09:00:00,-3.41,-3.44
1993-01-05 12:00:00,-3.11,-3.16
1993-01-05 15:00:00,-2.66,-2.69
1993-01-05 18:00:00,-2.70,-2.73
1993-01-05 21:00:00,-4.55,-4.50
1993-01-06 00:00:00,-7.33,-7.10
1993-01-06 03:00:00,-11.21,-10.94
1993-01-06 06:00:00,-11.50,-11.34
1993-01-06 09:00:00,-9.83,-9.83
1993-01-06 12:00:00,-7.77,-8.07
1993-01-06 15:00:00,-6.64,-6.79
1993-01-06 18:00:00,-6.41,-6.41
1993-01-06 21:00:00,NaN,-6.89
1993-01-07 00:00:00,-7.43,-7.43
1993-01-07 03:00:00,NaN,-6.92
1993-01-07 06:00:00,-7.54,-7.46
1993-01-07 09:00:00,-9.10,-9.01
1993-01-07 12:00:00,-9.83,-9.83
1993-01-07 15:00:00,-11.51,-11.39
1993-01-07 18:00:00,-13.31,-13.28
1993-01-07 21:00:00,-12.63,-12.69
1993-01-08 00:00:00,NaN,-10.24
1993-01-08 03:00:00,-8.83,-8.78
1993-01-08 06:00:00,-8.35,-8.23
1993-01-08 09:00:00,-9.30,-9.10
1993-01-08 12:00:00,-9.84,-9.64
1993-01-08 15:00:00,-9.29,-9.16
1993-01-08 18:00:00,-7.22,-7.17
1993-01-08 21:00:00,-6.46,-6.46
1993-01-09 00:00:00,-6.10,-6.06
1993-01-09 03:00:00,-6.19,-6.11
1993-01-09 06:00:00,-6.89,-6.67
1993-01-09 09:00:00,-7.02,-6.75
1993-01-09 12:00:00,-7.62,-7.46
1993-01-09 15:00:00,NaN,-6.37
1993-01-09 18:00:00,-4.14,-4.21
1993-01-09 21:00:00,-5.71,-5.63
1993-01-10 00:00:00,-7.84,-7.68
1993-01-10 03:00:00,-9.14,-8.99
1993-01-10 06:00:00,-9.48,-9.40
1993-01-10 09:00:00,-6.55,-6.53
1993-01-10 12:00:00,-7.22,-7.16
1993-01-10 15:00:00,-7.24,-7.18
1993-01-10 18:00:00,-7.61,-7.54
1993-01-10 21:00:00,-7.75,-7.74
1993-01-11 00:00:00,-9.96,-9.81
1993-01-11 03:00:00,-12.50,-12.50
1993-01-11 06:00:00,-11.89,-11.90
1993-01-11 09:00:00,-11.17,-10.87
1993-01-11 12:00:00,-11.50,-11.24
1993-01-11 15:00:00,-11.11,-10.84
1993-01-11 18:00:00,-11.10,-10.86
1993-01-11 21:00:00,-7.14,-7.34
1993-01-12 00:00:00,-5.93,-5.93
1993-01-12 03:00:00,-5.75,-5.76
1993-01-12 06:00:00,-5.82,-5.84
1993-01-12 09:00:00,-5.55,-5.59
1993-01-12 12:00:00,-5.43,-5.46
1993-01-12 15:00:00,-5.10,-5.17
1993-01-12 18:00:00,-6.09,-5.99
1993-01-12 21:00:00,-8.35,-8.38
1993-01-13 00:00:00,-9.80,-9.97
1993-01-13 03:00:00,-9.05,-9.30
1993-01-13 06:00:00,-10.18,-10.26
1993-01-13 09:00:00,-10.85,-10.95
1993-01-13 12:00:00,-9.54,-9.50
1993-01-13 15:00:00,-9.43,-9.20
1993-01-13 18:00:00,-10.25,-10.06
1993-01-13 21:00:00,-10.67,-10.38
1993-01-14 00:00:00,-11.09,-10.88
1993-01-14 03:00:00,-11.52,-11.12
1993-01-14 06:00:00,-12.69,-12.28
1993-01-14 09:00:00,-14.73,-14.28
1993-01-14 12:00:00,-15.25,-14.92
1993-01-14 15:00:00,-15.49,-15.15
1993-01-14 18:00:00,-15.49,-15.05
1993-01-14 21:00:00,-15.55,-15.06
1993-01-15 00:00:00,-19.04,-18.47
1993-01-15 03:00:00,-15.99,-15.62
1993-01-15 06:00:00,-16.72,-16.29
1993-01-15 09:00:00,-16.36,-16.36
1993-01-15 12:00:00,-6.22,-6.24
1993-01-15 15:00:00,-5.66,-5.62
1993-01-15 18:00:00,-10.83,-10.73
1993-01-15 21:00:00,-9.52,-9.54
1993-01-16 00:00:00,-10.53,-10.28
1993-01-16 03:00:00,-13.48,-13.11
1993-01-16 06:00:00,-12.57,-12.41
1993-01-16 09:00:00,-11.12,-11.00
1993-01-16 12:00:00,-10.88,-10.68
1993-01-16 15:00:00,-10.49,-10.35
1993-01-16 18:00:00,-4.75,-5.14
1993-01-16 21:00:00,-5.68,-5.67
1993-01-17 00:00:00,-4.47,-4.38
1993-01-17 03:00:00,-6.80,-6.56
1993-01-17 06:00:00,-8.81,-8.68
1993-01-17 09:00:00,-9.83,-9.72
1993-01-17 12:00:00,-11.77,-11.63
1993-01-17 15:00:00,-13.50,-13.46
1993-01-17 18:00:00,-12.00,-11.86
1993-01-17 21:00:00,-12.46,-12.22
1993-01-18 00:00:00,-12.43,-12.26
1993-01-18 03:00:00,-11.45,-11.37
1993-01-18 06:00:00,-10.97,-10.91
1993-01-18 09:00:00,-11.07,-10.93
1993-01-18 12:00:00,-10.83,-10.70
1993-01-18 15:00:00,-10.03,-9.99
1993-01-18 18:00:00,-10.23,-10.21
1993-01-18 21:00:00,-10.83,-10.79
1993-01-19 00:00:00,-11.89,-11.87
1993-01-19 03:00:00,-11.94,-11.90
1993-01-19 06:00:00,-12.24,-12.13
1993-01-19 09:00:00,-14.89,-14.92
1993-01-19 12:00:00,-15.80,-15.73
1993-01-19 15:00:00,-16.29,-16.23
1993-01-19 18:00:00,-15.59,-15.48
1993-01-19 21:00:00,-15.35,-15.41
1993-01-20 00:00:00,-12.52,-12.45
1993-01-20 03:00:00,-13.36,-13.36
1993-01-20 06:00:00,-14.90,-14.99
1993-01-20 09:00:00,-13.91,-14.03
1993-01-20 12:00:00,-11.07,-11.26
1993-01-20 15:00:00,-7.74,-7.71
1993-01-20 18:00:00,-8.72,-8.59
1993-01-20 21:00:00,-10.45,-10.41
1993-01-21 00:00:00,-10.15,-10.08
1993-01-21 03:00:00,-11.80,-11.47
1993-01-21 06:00:00,-3.42,-3.69
1993-01-21 09:00:00,-3.16,-3.13
1993-01-21 12:00:00,-2.28,-2.43
1993-01-21 15:00:00,-3.14,-3.19
1993-01-21 18:00:00,-3.34,-3.39
1993-01-21 21:00:00,-3.33,-3.36
1993-01-22 00:00:00,-3.77,-3.78
1993-01-22 03:00:00,-4.59,-4.55
1993-01-22 06:00:00,-7.07,-6.92
1993-01-22 09:00:00,-8.26,-8.06
1993-01-22 12:00:00,-9.21,-8.95
1993-01-22 15:00:00,-10.20,-9.90
1993-01-22 18:00:00,-11.73,-11.45
1993-01-22 21:00:00,-12.72,-12.74
1993-01-23 00:00:00,-11.85,-11.72
1993-01-23 03:00:00,-11.70,-11.56
1993-01-23 06:00:00,-11.91,-11.76
1993-01-23 09:00:00,-12.40,-12.27
1993-01-23 12:00:00,-12.80,-12.65
1993-01-23 15:00:00,-12.42,-12.30
1993-01-23 18:00:00,-11.88,-11.73
1993-01-23 21:00:00,-11.91,-11.73
1993-01-24 00:00:00,-11.32,-11.20
1993-01-24 03:00:00,-11.55,-11.33
1993-01-24 06:00:00,-14.49,-14.41
1993-01-24 09:00:00,-15.58,-15.55
1993-01-24 12:00:00,-15.68,-15.68
1993-01-24 15:00:00,-15.87,-15.80
1993-01-24 18:00:00,-16.09,-16.03
1993-01-24 21:00:00,-14.97,-14.93
1993-01-25 00:00:00,-14.61,-14.48
1993-01-25 03:00:00,-13.58,-13.59
1993-01-25 06:00:00,-14.17,-14.12
1993-01-25 09:00:00,-13.53,-13.48
1993-01-25 12:00:00,-13.93,-13.92
1993-01-25 15:00:00,-14.74,-14.71
1993-01-25 18:00:00,-15.12,-15.10
1993-01-25 21:00:00,-13.27,-13.27
1993-01-26 00:00:00,-12.43,-12.45
1993-01-26 03:00:00,-10.04,-10.02
1993-01-26 06:00:00,-9.85,-9.76
1993-01-26 09:00:00,-9.28,-9.26
1993-01-26 12:00:00,-9.30,-9.24
1993-01-26 15:00:00,-8.70,-8.64
1993-01-26 18:00:00,-8.24,-8.20
1993-01-26 21:00:00,-8.20,-8.13
1993-01-27 00:00:00,-8.77,-8.67
1993-01-27 03:00:00,-9.57,-9.50
1993-01-27 06:00:00,-8.91,-8.83
1993-01-27 09:00:00,-9.51,-9.36
1993-01-27 12:00:00,-10.10,-10.07
1993-01-27 15:00:00,-10.25,-10.16
1993-01-27 18:00:00,-9.46,-9.40
1993-01-27 21:00:00,-8.55,-8.48
1993-01-28 00:00:00,-8.90,-8.79
1993-01-28 03:00:00,-9.99,-9.91
1993-01-28 06:00:00,-10.54,-10.49
1993-01-28 09:00:00,-12.07,-11.95
1993-01-28 12:00:00,-14.83,-14.81
1993-01-28 15:00:00,-14.67,-14.69
1993-01-28 18:00:00,-15.55,-15.55
1993-01-28 21:00:00,-14.82,-14.85
1993-01-29 00:00:00,-11.06,-11.15
1993-01-29 03:00:00,-9.14,-9.06
1993-01-29 06:00:00,-9.28,-9.24
1993-01-29 09:00:00,-8.39,-8.35
1993-01-29 12:00:00,-7.63,-7.62
1993-01-29 15:00:00,-7.14,-7.11
1993-01-29 18:00:00,-6.29,-6.31
1993-01-29 21:00:00,-5.06,-5.05
1993-01-30 00:00:00,-5.22,-5.18
1993-01-30 03:00:00,-4.77,-4.76
1993-01-30 06:00:00,-4.73,-4.73
1993-01-30 09:00:00,-4.13,-4.16
1993-01-30 12:00:00,-2.97,-3.03
1993-01-30 15:00:00,-2.50,-2.57
1993-01-30 18:00:00,-1.77,-1.87
1993-01-30 21:00:00,-0.32,-0.42
1993-01-31 00:00:00,-0.62,-0.71
1993-01-31 03:00:00,-1.32,-1.34
1993-01-31 06:00:00,-3.83,-3.75
1993-01-31 09:00:00,-6.31,-6.17
1993-01-31 12:00:00,-7.12,-6.95
1993-01-31 15:00:00,-7.72,-7.53
1993-01-31 18:00:00,-8.08,-7.91
1993-01-31 21:00:00,-7.35,-7.29
1993-02-01 00:00:00,-4.82,-4.86
1993-02-01 03:00:00,-2.28,-2.34
1993-02-01 06:00:00,-2.01,-2.01
1993-02-01 09:00:00,-1.32,-1.28
1993-02-01 12:00:00,-0.73,-0.56
1993-02-01 15:00:00,-3.08,-2.98
1993-02-01 18:00:00,-5.08,-5.23
1993-02-01 21:00:00,-5.50,-5.54
1993-02-02 00:00:00,-4.89,-4.93
1993-02-02 03:00:00,-3.19,-3.30
1993-02-02 06:00:00,-0.98,-1.07
1993-02-02 09:00:00,-1.34,-1.40
1993-02-02 12:00:00,-1.55,-1.63
1993-02-02 02:20:00,-1.81,-1.86
1993-02-02 18:00:00,-2.37,-2.37
1993-02-02 21:00:00,-5.97,-5.93
1993-02-03 00:00:00,-7.16,-7.13
1993-02-03 03:00:00,-6.10,-6.12
1993-02-03 06:00:00,-6.01,-6.00
1993-02-03 09:00:00,-7.45,-7.28
1993-02-03 12:00:00,-7.27,-7.21
1993-02-03 15:00:00,-8.40,-8.24
1993-02-03 18:00:00,-7.52,-7.41
1993-02-03 21:00:00,-7.57,-7.49
1993-02-04 00:00:00,NaN,-9.11
1993-02-04 03:00:00,-9.46,-9.36
1993-02-04 06:00:00,-9.44,-9.32
1993-02-04 09:00:00,-9.97,-9.79
1993-02-04 12:00:00,-10.44,-10.24
1993-02-04 15:00:00,-11.21,-10.94
1993-02-04 18:00:00,-11.49,-11.27
1993-02-04 21:00:00,-11.56,-11.39
1993-02-05 00:00:00,-10.89,-10.72
1993-02-05 03:00:00,-9.77,-9.65
1993-02-05 06:00:00,-9.27,-9.07
1993-02-05 09:00:00,-9.03,-8.88
1993-02-05 12:00:00,-7.65,-7.64
1993-02-05 15:00:00,-7.54,-7.45
1993-02-05 18:00:00,-9.40,-9.24
1993-02-05 21:00:00,-11.08,-10.87
1993-02-06 00:00:00,-11.88,-11.72
1993-02-06 03:00:00,-12.09,-11.86
1993-02-06 06:00:00,-12.06,-11.82
1993-02-06 09:00:00,-11.65,-11.55
1993-02-06 12:00:00,-10.79,-10.68
1993-02-06 15:00:00,-10.15,-10.06
1993-02-06 18:00:00,-10.07,-9.99
1993-02-06 21:00:00,-9.89,-9.74
1993-02-07 00:00:00,-10.21,-10.05
1993-02-07 03:00:00,-10.52,-10.38
1993-02-07 06:00:00,-9.81,-9.70
1993-02-07 09:00:00,-8.36,-8.29
1993-02-07 12:00:00,-6.46,-6.44
1993-02-07 15:00:00,-5.59,-5.39
1993-02-07 18:00:00,-4.09,-4.09
1993-02-07 21:00:00,-3.63,-3.69
1993-02-08 00:00:00,-4.38,-4.42
1993-02-08 03:00:00,-5.09,-5.15
1993-02-08 06:00:00,-4.26,-4.34
1993-02-08 09:00:00,-4.07,-4.08
1993-02-08 12:00:00,NaN,-3.49
1993-02-08 15:00:00,-6.31,-6.18
1993-02-08 18:00:00,-7.66,-14.99
1993-02-08 21:00:00,-7.96,-7.37
1993-02-09 00:00:00,-8.57,-8.42
1993-02-09 03:00:00,-10.01,-9.88
1993-02-09 06:00:00,-9.77,-9.69
1993-02-09 09:00:00,-8.92,-8.82
1993-02-09 12:00:00,-8.12,-8.04
1993-02-09 15:00:00,-7.70,-7.61
1993-02-09 18:00:00,-8.81,-8.73
1993-02-09 21:00:00,-9.69,-9.60
1993-02-10 00:00:00,-10.70,-10.54
1993-02-10 03:00:00,-10.84,-10.71
1993-02-10 06:00:00,-10.34,-10.21
1993-02-10 09:00:00,-11.02,-10.84
1993-02-10 12:00:00,-13.74,-13.78
1993-02-10 15:00:00,-13.80,-13.86
1993-02-10 18:00:00,-13.46,-13.44
1993-02-10 21:00:00,-11.81,-11.66
1993-02-11 00:00:00,-8.40,-8.53
1993-02-11 03:00:00,-2.23,-2.43
1993-02-11 06:00:00,0.03,-0.20
1993-02-11 09:00:00,-0.03,-0.27
1993-02-11 12:00:00,-0.17,-0.41
1993-02-11 15:00:00,-0.29,-0.53
1993-02-11 18:00:00,-0.69,-0.93
1993-02-11 21:00:00,-0.66,-0.84
1993-02-12 00:00:00,-0.29,-0.49
1993-02-12 03:00:00,-0.52,-0.72
1993-02-12 06:00:00,-0.71,-0.90
1993-02-12 09:00:00,-0.99,-1.13
1993-02-12 12:00:00,-1.04,-1.15
1993-02-12 15:00:00,-1.49,-1.56
1993-02-12 18:00:00,-1.18,-1.35
1993-02-12 21:00:00,-0.59,-0.77
1993-02-13 00:00:00,-0.81,-0.92
1993-02-13 03:00:00,-1.25,-1.33
1993-02-13 06:00:00,-3.06,-3.10
1993-02-13 09:00:00,-3.25,-3.37
1993-02-13 12:00:00,-3.09,-3.09
1993-02-13 15:00:00,-3.29,-3.29
1993-02-13 18:00:00,-2.29,-2.29
1993-02-13 21:00:00,-1.36,-1.36
1993-02-14 00:00:00,-0.65,-0.65
1993-02-14 03:00:00,0.56,0.56
1993-02-14 06:00:00,0.28,0.28
1993-02-14 09:00:00,0.40,0.40
1993-02-14 12:00:00,0.16,0.16
1993-02-14 15:00:00,-1.11,-1.11
1993-02-14 18:00:00,-1.28,-1.28
1993-02-14 21:00:00,-1.15,-1.15
1993-02-15 00:00:00,-0.72,-0.72
1993-02-15 03:00:00,-0.53,-0.53
1993-02-15 06:00:00,-0.77,-0.77
1993-02-15 09:00:00,-1.78,-1.78
1993-02-15 12:00:00,-3.46,-3.46
1993-02-15 15:00:00,-5.13,-5.13
1993-02-15 18:00:00,-6.45,-6.45
1993-02-15 21:00:00,-7.72,-7.72
1993-02-16 00:00:00,-7.68,-7.68
1993-02-16 03:00:00,NaN,NaN
1993-02-16 06:00:00,NaN,NaN
1993-02-16 09:00:00,-7.46,-7.46
1993-02-16 12:00:00,-9.20,-9.20
1993-02-16 15:00:00,-10.14,-10.14
1993-02-16 18:00:00,-10.89,-10.89
1993-02-16 21:00:00,-11.30,-11.30
1993-02-17 00:00:00,-9.98,-9.98
1993-02-17 03:00:00,-10.45,-10.45
1993-02-17 06:00:00,-11.26,-11.26
1993-02-17 09:00:00,-11.34,-11.34
1993-02-17 12:00:00,-11.76,-11.76
1993-02-17 15:00:00,-11.92,-11.92
1993-02-17 18:00:00,-11.66,-11.66
1993-02-17 21:00:00,-12.32,-12.32
1993-02-18 00:00:00,-13.58,-13.58
1993-02-18 03:00:00,-14.52,-14.52
1993-02-18 06:00:00,-15.03,-15.03
1993-02-18 09:00:00,-15.72,-15.72
1993-02-18 12:00:00,-16.98,-16.98
1993-02-18 15:00:00,-19.58,-19.58
1993-02-18 18:00:00,-18.44,-18.44
1993-02-18 21:00:00,-19.52,-19.52
1993-02-19 00:00:00,-20.16,-20.16
1993-02-19 03:00:00,-19.06,-19.06
1993-02-19 06:00:00,-18.18,-18.18
1993-02-19 09:00:00,-18.37,-18.37
1993-02-19 12:00:00,-17.89,-17.89
1993-02-19 15:00:00,-16.81,-16.81
1993-02-19 18:00:00,-17.46,-17.46
1993-02-19 21:00:00,-19.40,-19.40
1993-02-20 00:00:00,-20.97,-20.97
1993-02-20 03:00:00,-20.77,-20.77
1993-02-20 06:00:00,-19.85,-19.85
1993-02-20 09:00:00,-18.66,-18.66
1993-02-20 12:00:00,-17.81,-17.81
1993-02-20 15:00:00,-16.72,-16.72
1993-02-20 18:00:00,-16.71,-16.71
1993-02-20 21:00:00,-18.71,-18.71
1993-02-21 00:00:00,-19.86,-19.86
1993-02-21 03:00:00,-19.98,-19.98
1993-02-21 06:00:00,-19.50,-20.12
1993-02-21 09:00:00,-16.39,-16.56
1993-02-21 12:00:00,-14.84,-14.96
1993-02-21 15:00:00,-14.34,-14.48
1993-02-21 18:00:00,-12.33,-12.29
1993-02-21 21:00:00,-13.04,-13.05
1993-02-22 00:00:00,-15.41,-15.50
1993-02-22 03:00:00,-15.86,-15.94
1993-02-22 06:00:00,-13.87,-14.19
1993-02-22 09:00:00,-13.01,-13.35
1993-02-22 12:00:00,-13.66,-13.85
1993-02-22 15:00:00,-11.20,-11.26
1993-02-22 18:00:00,-9.78,-9.67
1993-02-22 21:00:00,-10.75,-10.66
1993-02-23 00:00:00,-12.68,-12.82
1993-02-23 03:00:00,-10.40,-10.38
1993-02-23 06:00:00,-9.99,-10.10
1993-02-23 09:00:00,-8.12,-8.14
1993-02-23 12:00:00,-7.25,-7.17
1993-02-23 15:00:00,-6.25,-6.25
1993-02-23 18:00:00,-3.51,-3.56
1993-02-23 21:00:00,-5.49,-5.33
1993-02-24 00:00:00,-5.96,-6.09
1993-02-24 03:00:00,-7.14,-7.09
1993-02-24 06:00:00,-3.01,-3.19
1993-02-24 09:00:00,-3.02,-3.09
1993-02-24 12:00:00,-3.72,-3.77
1993-02-24 15:00:00,-2.93,-3.00
1993-02-24 18:00:00,-2.11,-2.13
1993-02-24 21:00:00,-2.63,-2.65
1993-02-25 00:00:00,-2.38,-2.45
1993-02-25 03:00:00,-2.54,-2.65
1993-02-25 06:00:00,-2.22,-2.31
1993-02-25 09:00:00,-1.54,-1.65
1993-02-25 12:00:00,-3.29,-3.25
1993-02-25 15:00:00,-5.26,-5.09
1993-02-25 18:00:00,-8.85,-8.54
1993-02-25 21:00:00,-10.96,-10.63
1993-02-26 00:00:00,-8.48,-8.61
1993-02-26 03:00:00,-0.99,-1.13
1993-02-26 06:00:00,-7.19,-6.89
1993-02-26 09:00:00,-8.80,-8.63
1993-02-26 12:00:00,-9.20,-9.08
1993-02-26 15:00:00,-8.84,-8.60
1993-02-26 18:00:00,-8.74,-8.39
1993-02-26 21:00:00,-9.08,-8.66
1993-02-27 00:00:00,-9.65,-9.44
1993-02-27 03:00:00,-10.41,-10.19
1993-02-27 06:00:00,-8.43,-8.55
1993-02-27 09:00:00,-7.58,-7.51
1993-02-27 12:00:00,-7.68,-7.63
1993-02-27 15:00:00,-7.31,-7.23
1993-02-27 18:00:00,-6.90,-6.77
1993-02-27 21:00:00,-7.16,-7.09
1993-02-28 00:00:00,-8.03,-7.92
1993-02-28 03:00:00,-9.07,-8.93
1993-02-28 06:00:00,-8.77,-8.70
1993-02-28 09:00:00,-7.59,-7.57
1993-02-28 12:00:00,-7.44,-7.38
1993-02-28 15:00:00,-8.00,-7.92
1993-02-28 18:00:00,-7.99,-7.84
1993-02-28 21:00:00,-11.78,-11.54
1993-03-01 00:00:00,-12.75,-12.76
1993-03-01 03:00:00,-10.45,-10.51
1993-03-01 06:00:00,-9.93,-9.83
1993-03-01 09:00:00,-10.23,-10.09
1993-03-01 12:00:00,-8.35,-8.31
1993-03-01 15:00:00,-6.36,-6.36
1993-03-01 18:00:00,-5.36,-5.37
1993-03-01 21:00:00,-4.00,-4.06
1993-03-02 00:00:00,-3.28,-3.39
1993-03-02 03:00:00,-1.63,-1.85
1993-03-02 06:00:00,-1.91,-2.03
1993-03-02 09:00:00,-1.29,-1.41
1993-03-02 12:00:00,-1.23,-1.40
1993-03-02 15:00:00,-2.12,-2.13
1993-03-02 18:00:00,-0.08,-0.17
1993-03-02 21:00:00,-0.03,-0.02
1993-03-03 00:00:00,-0.65,-0.85
1993-03-03 03:00:00,-2.69,-2.72
1993-03-03 06:00:00,-4.00,-4.13
1993-03-03 09:00:00,-4.11,-4.16
1993-03-03 12:00:00,-4.85,-4.88
1993-03-03 15:00:00,-4.41,-4.48
1993-03-03 18:00:00,-4.33,-4.34
1993-03-03 21:00:00,-3.92,-3.95
1993-03-04 00:00:00,-5.41,-5.39
1993-03-04 03:00:00,-6.58,-6.52
1993-03-04 06:00:00,-7.21,-7.14
1993-03-04 09:00:00,-7.80,-7.69
1993-03-04 12:00:00,-8.78,-8.69
1993-03-04 15:00:00,-9.30,-9.21
1993-03-04 18:00:00,-9.72,-9.55
1993-03-04 21:00:00,-9.95,-9.81
1993-03-05 00:00:00,-9.72,-9.59
1993-03-05 03:00:00,-9.86,-9.67
1993-03-05 06:00:00,-11.08,-10.88
1993-03-05 09:00:00,-10.76,-10.55
1993-03-05 12:00:00,-10.63,-10.39
1993-03-05 15:00:00,-11.15,-10.90
1993-03-05 18:00:00,-10.12,-9.99
1993-03-05 21:00:00,-11.76,-11.19
1993-03-06 00:00:00,-13.80,-13.50
1993-03-06 03:00:00,-16.55,-16.27
1993-03-06 06:00:00,-15.77,-15.48
1993-03-06 09:00:00,-17.52,-17.38
1993-03-06 12:00:00,-15.96,-15.84
1993-03-06 15:00:00,-15.19,-15.66
1993-03-06 18:00:00,-12.82,-13.41
1993-03-06 21:00:00,-14.95,-14.84
1993-03-07 00:00:00,-15.80,-15.83
1993-03-07 03:00:00,-17.56,-17.61
1993-03-07 06:00:00,-17.76,-17.80
1993-03-07 09:00:00,-17.98,-17.84
1993-03-07 12:00:00,-16.50,-16.38
1993-03-07 15:00:00,-13.97,-13.78
1993-03-07 18:00:00,-12.41,-11.86
1993-03-07 21:00:00,-13.46,-12.90
1993-03-08 00:00:00,-14.44,-14.12
1993-03-08 03:00:00,-14.26,-13.96
1993-03-08 06:00:00,-13.24,-12.99
1993-03-08 09:00:00,-4.48,-4.91
1993-03-08 12:00:00,-1.59,-1.69
1993-03-08 15:00:00,-1.60,-1.66
1993-03-08 18:00:00,-1.41,-1.43
1993-03-08 21:00:00,-1.08,-1.14
1993-03-09 00:00:00,-1.30,-1.39
1993-03-09 03:00:00,-1.41,-1.48
1993-03-09 06:00:00,-2.40,-2.45
1993-03-09 09:00:00,-3.78,-3.77
1993-03-09 12:00:00,-5.17,-5.12
1993-03-09 15:00:00,-5.04,-4.93
1993-03-09 18:00:00,-8.12,-7.93
1993-03-09 21:00:00,-9.05,-8.84
1993-03-10 00:00:00,-9.14,-8.96
1993-03-10 03:00:00,-8.88,-8.69
1993-03-10 06:00:00,-9.57,-9.36
1993-03-10 09:00:00,-12.46,-12.15
1993-03-10 12:00:00,-14.97,-14.81
1993-03-10 15:00:00,-15.71,-15.39
1993-03-10 18:00:00,-15.77,-15.45
1993-03-10 21:00:00,-15.50,-15.23
1993-03-11 00:00:00,-15.27,-15.02
1993-03-11 03:00:00,-14.72,-14.53
1993-03-11 06:00:00,-13.66,-13.50
1993-03-11 09:00:00,-11.35,-11.22
1993-03-11 12:00:00,-8.90,-8.79
1993-03-11 15:00:00,NaN,NaN
1993-03-11 18:00:00,NaN,NaN
1993-03-11 21:00:00,NaN,NaN
1993-03-12 00:00:00,NaN,NaN
1993-03-12 03:00:00,NaN,NaN
1993-03-12 06:00:00,NaN,NaN
1993-03-12 09:00:00,NaN,NaN
1993-03-12 12:00:00,NaN,NaN
1993-03-12 15:00:00,NaN,NaN
1993-03-12 18:00:00,NaN,NaN
1993-03-12 21:00:00,NaN,NaN
1993-03-13 00:00:00,NaN,NaN
1993-03-13 03:00:00,NaN,NaN
1993-03-13 06:00:00,NaN,NaN
1993-03-13 09:00:00,NaN,NaN
1993-03-13 12:00:00,NaN,NaN
1993-03-13 15:00:00,NaN,NaN
1993-03-13 18:00:00,NaN,NaN
1993-03-13 21:00:00,NaN,NaN
1993-03-14 00:00:00,NaN,NaN
1993-03-14 03:00:00,NaN,NaN
1993-03-14 06:00:00,NaN,NaN
1993-03-14 09:00:00,NaN,NaN
1993-03-14 12:00:00,NaN,NaN
1993-03-14 15:00:00,NaN,NaN
1993-03-14 18:00:00,NaN,NaN
1993-03-14 21:00:00,NaN,NaN
1993-03-15 00:00:00,NaN,NaN
1993-03-15 03:00:00,NaN,NaN
1993-03-15 06:00:00,NaN,NaN
1993-03-15 09:00:00,NaN,NaN
1993-03-15 12:00:00,NaN,NaN
1993-03-15 15:00:00,NaN,NaN
1993-03-15 18:00:00,NaN,NaN
1993-03-15 21:00:00,NaN,NaN
1993-03-16 00:00:00,NaN,NaN
1993-03-16 03:00:00,NaN,NaN
1993-03-16 06:00:00,NaN,NaN
1993-03-16 09:00:00,NaN,NaN
1993-03-16 12:00:00,NaN,NaN
1993-03-16 15:00:00,NaN,NaN
1993-03-16 18:00:00,NaN,NaN
1993-03-16 21:00:00,NaN,NaN
1993-03-17 00:00:00,NaN,NaN
1993-03-17 03:00:00,NaN,NaN
1993-03-17 06:00:00,NaN,NaN
1993-03-17 09:00:00,NaN,NaN
1993-03-17 12:00:00,NaN,NaN
1993-03-17 15:00:00,NaN,NaN
1993-03-17 18:00:00,NaN,NaN
1993-03-17 21:00:00,NaN,NaN
1993-03-18 00:00:00,NaN,NaN
1993-03-18 03:00:00,NaN,NaN
1993-03-18 06:00:00,NaN,NaN
1993-03-18 09:00:00,NaN,NaN
1993-03-18 12:00:00,NaN,NaN
1993-03-18 15:00:00,NaN,NaN
1993-03-18 18:00:00,NaN,NaN
1993-03-18 21:00:00,NaN,NaN
1993-03-19 00:00:00,NaN,NaN
1993-03-19 03:00:00,NaN,NaN
1993-03-19 06:00:00,NaN,NaN
1993-03-19 09:00:00,NaN,NaN
1993-03-19 12:00:00,NaN,NaN
1993-03-19 15:00:00,NaN,NaN
1993-03-19 18:00:00,NaN,NaN
1993-03-19 21:00:00,NaN,NaN
1993-03-20 00:00:00,NaN,NaN
1993-03-20 03:00:00,NaN,NaN
1993-03-20 06:00:00,NaN,NaN
1993-03-20 09:00:00,NaN,NaN
1993-03-20 12:00:00,NaN,NaN
1993-03-20 15:00:00,NaN,NaN
1993-03-20 18:00:00,NaN,NaN
1993-03-20 21:00:00,NaN,NaN
1993-03-21 00:00:00,NaN,NaN
1993-03-21 03:00:00,NaN,NaN
1993-03-21 06:00:00,NaN,NaN
1993-03-21 09:00:00,NaN,NaN
1993-03-21 12:00:00,NaN,NaN
1993-03-21 15:00:00,NaN,NaN
1993-03-21 18:00:00,NaN,NaN
1993-03-21 21:00:00,NaN,NaN
1993-03-22 00:00:00,NaN,NaN
1993-03-22 03:00:00,NaN,NaN
1993-03-22 06:00:00,NaN,NaN
1993-03-22 09:00:00,NaN,NaN
1993-03-22 12:00:00,NaN,NaN
1993-03-22 15:00:00,NaN,NaN
1993-03-22 18:00:00,NaN,NaN
1993-03-22 21:00:00,NaN,NaN
1993-03-23 00:00:00,NaN,NaN
1993-03-23 03:00:00,NaN,NaN
1993-03-23 06:00:00,NaN,NaN
1993-03-23 09:00:00,NaN,NaN
1993-03-23 12:00:00,NaN,NaN
1993-03-23 15:00:00,NaN,NaN
1993-03-23 18:00:00,NaN,NaN
1993-03-23 21:00:00,NaN,NaN
1993-03-24 00:00:00,NaN,NaN
1993-03-24 03:00:00,NaN,NaN
1993-03-24 06:00:00,NaN,NaN
1993-03-24 09:00:00,NaN,NaN
1993-03-24 12:00:00,NaN,NaN
1993-03-24 15:00:00,NaN,NaN
1993-03-24 18:00:00,NaN,NaN
1993-03-24 21:00:00,NaN,NaN
1993-03-25 00:00:00,NaN,NaN
1993-03-25 03:00:00,NaN,NaN
1993-03-25 06:00:00,NaN,NaN
1993-03-25 09:00:00,NaN,NaN
1993-03-25 12:00:00,NaN,NaN
1993-03-25 15:00:00,NaN,NaN
1993-03-25 18:00:00,NaN,NaN
1993-03-25 21:00:00,NaN,NaN
1993-03-26 00:00:00,NaN,NaN
1993-03-26 03:00:00,NaN,NaN
1993-03-26 06:00:00,NaN,NaN
1993-03-26 09:00:00,NaN,NaN
1993-03-26 12:00:00,NaN,NaN
1993-03-26 15:00:00,NaN,NaN
1993-03-26 18:00:00,NaN,NaN
1993-03-26 21:00:00,NaN,NaN
1993-03-27 00:00:00,NaN,NaN
1993-03-27 03:00:00,NaN,NaN
1993-03-27 06:00:00,NaN,NaN
1993-03-27 09:00:00,NaN,NaN
1993-03-27 12:00:00,NaN,NaN
1993-03-27 15:00:00,NaN,NaN
1993-03-27 18:00:00,NaN,NaN
1993-03-27 21:00:00,NaN,NaN
1993-03-28 00:00:00,NaN,NaN
1993-03-28 03:00:00,NaN,NaN
1993-03-28 06:00:00,NaN,NaN
1993-03-28 09:00:00,NaN,NaN
1993-03-28 12:00:00,NaN,NaN
1993-03-28 15:00:00,NaN,NaN
1993-03-28 18:00:00,NaN,NaN
1993-03-28 21:00:00,NaN,NaN
1993-03-29 00:00:00,NaN,NaN
1993-03-29 03:00:00,NaN,NaN
1993-03-29 06:00:00,NaN,NaN
1993-03-29 09:00:00,NaN,NaN
1993-03-29 12:00:00,NaN,NaN
1993-03-29 15:00:00,NaN,NaN
1993-03-29 18:00:00,NaN,NaN
1993-03-29 21:00:00,NaN,NaN
1993-03-30 00:00:00,NaN,NaN
1993-03-30 03:00:00,NaN,NaN
1993-03-30 06:00:00,NaN,NaN
1993-03-30 09:00:00,NaN,NaN
1993-03-30 12:00:00,NaN,NaN
1993-03-30 15:00:00,NaN,NaN
1993-03-30 18:00:00,NaN,NaN
1993-03-30 21:00:00,NaN,NaN
1993-03-31 00:00:00,NaN,NaN
1993-03-31 03:00:00,NaN,NaN
1993-03-31 06:00:00,NaN,NaN
1993-03-31 09:00:00,NaN,NaN
1993-03-31 12:00:00,NaN,NaN
1993-03-31 15:00:00,NaN,NaN
1993-03-31 18:00:00,NaN,NaN
1993-03-31 21:00:00,NaN,NaN
1993-04-01 00:00:00,NaN,NaN
1993-04-01 03:00:00,NaN,NaN
1993-04-01 06:00:00,NaN,NaN
1993-04-01 09:00:00,NaN,NaN
1993-04-01 12:00:00,NaN,NaN
1993-04-01 15:00:00,NaN,NaN
1993-04-01 18:00:00,NaN,NaN
1993-04-01 21:00:00,NaN,NaN
1993-04-02 00:00:00,NaN,NaN
1993-04-02 03:00:00,NaN,NaN
1993-04-02 06:00:00,NaN,NaN
1993-04-02 09:00:00,NaN,NaN
1993-04-02 12:00:00,NaN,NaN
1993-04-02 15:00:00,NaN,NaN
1993-04-02 18:00:00,NaN,NaN
1993-04-02 21:00:00,NaN,NaN
1993-04-03 00:00:00,NaN,NaN
1993-04-03 03:00:00,NaN,NaN
1993-04-03 06:00:00,NaN,NaN
1993-04-03 09:00:00,NaN,NaN
1993-04-03 12:00:00,NaN,NaN
1993-04-03 15:00:00,NaN,NaN
1993-04-03 18:00:00,NaN,NaN
1993-04-03 21:00:00,NaN,NaN
1993-04-04 00:00:00,NaN,NaN
1993-04-04 03:00:00,NaN,NaN
1993-04-04 06:00:00,NaN,NaN
1993-04-04 09:00:00,NaN,NaN
1993-04-04 12:00:00,NaN,NaN
1993-04-04 15:00:00,NaN,NaN
1993-04-04 18:00:00,NaN,NaN
1993-04-04 21:00:00,NaN,NaN
1993-04-05 00:00:00,NaN,NaN
1993-04-05 03:00:00,NaN,NaN
1993-04-05 06:00:00,NaN,NaN
1993-04-05 09:00:00,NaN,NaN
1993-04-05 12:00:00,NaN,NaN
1993-04-05 15:00:00,NaN,NaN
1993-04-05 18:00:00,NaN,NaN
1993-04-05 21:00:00,NaN,NaN
1993-04-06 00:00:00,NaN,NaN
1993-04-06 03:00:00,NaN,NaN
1993-04-06 06:00:00,NaN,NaN
1993-04-06 09:00:00,NaN,NaN